DCBB
1 40912U 15049P 22055.59412008 .00007031 00000-0 29670-3 0 9996
2 40912 97.4424 67.7302 0013118 347.2846 130.1510 15.23522647356553
TW-1A
1 40928U 15051D 22055.64069662 .00020450 00000-0 34640-3 0 9999
2 40928 97.0541 79.9195 0011110 84.0914 36.3248 15.51496458360701
IO-86
1 40931U 15052B 22055.39640272 .00000787 00000-0 20390-4 0 9997
2 40931 5.9955 255.4896 0013568 7.7194 352.3329 14.76736543346604
ATHENOXAT-1
1 41168U 15077C 22055.64009690 .00008642 00000-0 37818-3 0 9998
2 41168 14.9856 204.5918 0010274 95.2088 359.5193 15.17891680343124
ChubuSat-2
1 41338U 16012B 22055.95779601 .00001165 00000-0 82579-4 0 9995
2 41338 31.0041 19.9145 0013433 117.6115 242.5885 15.00902753330568
ChubuSat-3
1 41339U 16012C 22055.29297085 .00001268 00000-0 90220-4 0 9990
2 41339 31.0117 21.1383 0013082 117.7588 242.4377 15.01018763330461
Horyu-4
1 41340U 16012D 22055.53180985 .00002075 00000-0 14587-3 0 9997
2 41340 31.0061 359.8236 0013585 158.8020 201.3181 15.02512539330721
e-st@r-II
1 41459U 16025D 22055.39170104 .00005688 00000-0 26662-3 0 9998
2 41459 98.1705 212.5203 0152465 292.6727 65.8458 15.10369515320410
AAUSAT4
1 41460U 16025E 22055.42861327 .00011506 00000-0 49559-3 0 9994
2 41460 98.1673 217.8629 0136979 271.6114 86.9438 15.14597307320806
LO-87
1 41557U 16033B 22055.60298154 .00007863 00000-0 25846-3 0 9996
2 41557 97.3872 153.4065 0013207 62.7113 50.3908 15.31734385320096
NuSat2
1 41558U 16033C 22055.85029295 .00007285 00000-0 22456-3 0 9994
2 41558 97.4032 158.7355 0012275 53.7400 94.7409 15.33835604320376
Lapan A3
1 41603U 16040E 22055.90480418 .00000895 00000-0 44111-4 0 9990
2 41603 97.2231 97.7607 0012772 189.0041 289.2841 15.20322757314936
Pratham
1 41783U 16059A 22055.39552430 .00000221 00000-0 51516-4 0 9996
2 41783 97.9308 101.3913 0033815 168.8305 191.3656 14.63242258289096
TY-1
1 41844U 16066D 22055.53890712 .00008027 00000-0 30014-3 0 9997
2 41844 97.3955 68.2730 0013043 336.0695 180.2239 15.27523223294350
CAS-2T
1 41847U 16066G 22055.72960384 .00000572 00000-0 95916-4 0 9994
2 41847 98.5665 120.4644 0364611 186.7822 172.8357 14.38379273278143
EO-88
1 42017U 17008BX 22055.74777842 .00008553 00000-0 28877-3 0 9996
2 42017 97.2842 123.7401 0004106 296.8204 63.2617 15.30910393279814
CAS-4B
1 42759U 17034B 22055.57258373 .00001817 00000-0 12010-3 0 9990
2 42759 43.0167 234.4336 0009507 297.1011 170.1753 15.10945972259279
CAS-4A
1 42761U 17034D 22055.54819006 .00002025 00000-0 13206-3 0 9996
2 42761 43.0166 233.4384 0009880 299.6303 163.1962 15.11032685259271
NIUSat
1 42766U 17036B 22055.55588929 .00004728 00000-0 19586-3 0 9990
2 42766 97.2194 97.4860 0014605 13.6167 346.5462 15.24284347259593
Aalto 1
1 42775U 17036L 22055.81827887 .00003874 00000-0 16262-3 0 9997
2 42775 97.2153 97.8114 0013280 12.6716 347.4853 15.23959826259618
URSA MAIOR
1 42776U 17036M 22055.57123499 .00004384 00000-0 18154-3 0 9998
2 42776 97.2166 98.2037 0012982 12.5783 347.5776 15.24356100259604
Max Valier Sat
1 42778U 17036P 22055.40373245 .00004411 00000-0 17894-3 0 9999
2 42778 97.2236 100.4491 0011536 15.6154 344.5438 15.25061811259665
Pegasus
1 42784U 17036V 22055.57393036 .00005954 00000-0 23161-3 0 9991
2 42784 97.2175 101.2744 0011153 17.1392 343.0221 15.26329272259786
NUDATSat
1 42787U 17036Y 22055.97529995 .00010579 00000-0 37294-3 0 9994
2 42787 97.2210 105.0669 0009731 6.4529 353.6836 15.29405347259880
SUCHAI 1
1 42788U 17036Z 22055.08812582 .00007134 00000-0 26721-3 0 9990
2 42788 97.2185 102.1787 0010490 15.0371 345.1179 15.27525097259863
SKCUBE
1 42789U 17036AA 22055.56543560 .00006569 00000-0 24958-3 0 9992
2 42789 97.2180 102.2107 0010427 14.3213 345.8320 15.27081710259834
VZLUSAT 1
1 42790U 17036AB 22055.58369476 .00009634 00000-0 34064-3 0 9993
2 42790 97.2211 104.6690 0009275 8.4132 351.7262 15.29336439259976
VENTA 1
1 42791U 17036AC 22055.56758984 .00005802 00000-0 22264-3 0 9990
2 42791 97.2178 102.1705 0010146 15.1737 344.9804 15.26804579259826
Robusta 1B
1 42792U 17036AD 22055.35678327 .00007515 00000-0 28207-3 0 9996
2 42792 97.2180 102.5001 0010016 15.5377 344.6169 15.27441581259847
D-SAT
1 42794U 17036AF 22055.83629331 .00001484 00000-0 13051-3 0 9992
2 42794 97.4544 67.2238 0126082 102.0012 259.5372 14.92030887254729
TechnoSat
1 42829U 17042E 22055.59127079 .00000545 00000-0 59491-4 0 9999
2 42829 97.4360 276.2306 0014910 30.4433 329.7649 14.91546747251268
QIKCOM-1
1 42983U 98067NF 22055.49605146 .00040400 00000-0 24731-3 0 9993
2 42983 51.6365 51.6963 0001350 160.7021 199.4031 15.76905204247010
AO-91
1 43017U 17073E 22055.66937550 .00002091 00000-0 16384-3 0 9995
2 43017 97.6882 314.4682 0251440 196.5372 162.7532 14.80430516230423
PICSAT
1 43132U 18004X 22055.46066499 .00007565 00000-0 27754-3 0 9995
2 43132 97.3828 132.6909 0009222 46.3544 313.8459 15.28209346229133
AO-92
1 43137U 18004AC 22055.47001407 .00005703 00000-0 21735-3 0 9994
2 43137 97.3799 131.7960 0009250 49.3640 310.8402 15.27060392229098
TianYi 2
1 43155U 18008A 22055.59247191 .00004235 00000-0 23805-3 0 9992
2 43155 97.3693 117.6675 0016830 171.2940 326.2196 15.13694484226196
Zhou Enlai
1 43156U 18008B 22055.58759848 .00004686 00000-0 26558-3 0 9997
2 43156 97.3737 117.5156 0014150 170.6206 327.7346 15.13378764226126
TianYi 6
1 43158U 18008D 22055.41491213 .00004136 00000-0 23993-3 0 9990
2 43158 97.3698 115.5356 0013291 170.9237 199.7405 15.12618759226017
S-Net D
1 43186U 18014G 22055.71638603 .00000484 00000-0 46531-4 0 9993
2 43186 97.6665 323.6039 0010183 323.5745 36.4784 14.97438214222046
S-Net B
1 43187U 18014H 22055.71641636 .00000473 00000-0 45595-4 0 9991
2 43187 97.6662 323.5606 0010173 323.4622 36.5905 14.97437087222048
S-Net A
1 43188U 18014J 22055.31570983 .00000508 00000-0 48567-4 0 9995
2 43188 97.6667 323.2244 0010188 325.1852 34.8702 14.97435910221980
S-Net C
1 43189U 18014K 22055.51674531 .00000489 00000-0 46944-4 0 9997
2 43189 97.6662 323.3548 0010196 324.0711 35.9824 14.97434442220564
FMN 1
1 43192U 18015A 22055.93112991 .00015394 00000-0 49469-3 0 9990
2 43192 97.5174 198.6758 0013201 70.6087 45.9312 15.32283286226186
Shaonian Xing
1 43199U 18015H 22055.52123786 .00010385 00000-0 35448-3 0 9993
2 43199 97.4948 194.3009 0015492 82.4655 341.9941 15.30403101226151
SurfSat
1 43614U 18070B 22055.52929947 .00019070 00000-0 37524-3 0 9996
2 43614 93.0222 51.1579 0016011 100.6281 259.6782 15.47064122193568
CP-7 DAVE
1 43615U 18070C 22055.47833577 .00017723 00000-0 35535-3 0 9997
2 43615 93.0222 51.0463 0016223 101.1712 259.1371 15.46519340193532
ELFIN-B
1 43616U 18070D 22055.47524212 .00030152 00000-0 48795-3 0 9994
2 43616 93.0159 51.7185 0015457 95.4621 264.8404 15.52587197193758
ELFIN-A
1 43617U 18070E 22055.58358648 .00031201 00000-0 48795-3 0 9991
2 43617 93.0223 52.8958 0014815 92.0940 268.2019 15.53543684193805
CubeBel-1
1 43666U 18083E 22055.85177375 .00006179 00000-0 28073-3 0 9998
2 43666 97.4334 85.9218 0014359 14.6135 108.7460 15.21035028184356
Changshagaoxin
1 43669U 18083H 22055.85489904 .00005405 00000-0 25627-3 0 9998
2 43669 97.4277 82.2425 0010606 15.1703 109.2207 15.19659139184192
